LPMALPPS

Guest
Details From LPMA - Madeira
To LPPS - Porto Santo
Flight Number -
Tags generated
Created
Modified
Stats Distance 33 nm / 61 km
Max Altitude 400 ft / 122 m
Waypoints 3
Social Downloads 3
Likes 0
Share VATSIM

Download

Looking for another format? Having issues loading an existing format? Contact us
Advertisement - Login to hide

Notes

Basic altitude profile: - Ascent Rate: 2500ft/min - Ascent Speed: 250kts - Cruise Altitude: 7000ft - Cruise Speed: 265kts - Descent Rate: 2000ft/min - Descent Speed: 210kts

Route

LPMA SNT LPPS

ID Type Via Altitude Latitude Longitude Leg Dist Tot Dist Heading (true) Name
O LPMA APT - 0 ft / 0 m 32.69770˚ -16.77445˚ - 0 nm - Madeira
SNT VOR - 400 ft / 122 m 33.09028˚ -16.35056˚ 31 nm 31 nm 42° / 42° PORTO SANTO VOR-DME
O LPPS APT - 0 ft / 0 m 33.07341˚ -16.34995˚ 1 nm 32 nm 178° / 178° Porto Santo

Altitude Profile

Advertisement - Login to hide

LPMA

Details ICAO LPMA (FNC)
Name Madeira
Region Portugal
Timezone Atlantic/Madeira (UTC+1.0)
Stats Elevation 192 ft / 59 m (AMSL)
Location 32.697704° -16.774449°
Runways 1
Magnetic Variation 4.929° W

METAR

LPMA 202130Z 35005KT 270V050 9999 SCT018 17/09 Q1017

Decode

TAF

TAF LPMA 201630Z 2018/2118 VRB05KT 9999 SCT016 SCT030 TEMPO 2018/2118 36010KT BKN015

Decode

Departure Runways

ID Width Length Bearing (true) Bearing (mag) Surface Threshold Offset Overrun Length
05 141 ft / 43 m 8,683 ft / 2,647 m 42.98° 47.91° Asphalt 472 ft / 144 m 0 ft / 0 m
23 141 ft / 43 m 8,683 ft / 2,647 m 222.99° 227.92° Asphalt 466 ft / 142 m 0 ft / 0 m

LPPS

Details ICAO LPPS (PXO)
Name Porto Santo
Region Portugal
Timezone Atlantic/Madeira (UTC+1.0)
Stats Elevation 340 ft / 104 m (AMSL)
Location 33.073413° -16.349946°
Runways 1
Magnetic Variation 4.766° W

METAR

LPPS 202130Z 36009KT 9999 SCT015 SCT030 16/13 Q1018

Decode

TAF

TAF LPPS 201630Z 2018/2124 34010KT 9999 SCT015 BKN030 BECMG 2112/2115 27010KT BKN015 TEMPO 2115/2121 5000 RADZ BR SCT006 BKN012 BECMG 2121/2123 33012KT SCT015

Decode

Destination Runways

ID Width Length Bearing (true) Bearing (mag) Surface Threshold Offset Overrun Length
18 148 ft / 45 m 9,890 ft / 3,014 m 178.11° 182.88° Asphalt 0 ft / 0 m 0 ft / 0 m
36 148 ft / 45 m 9,890 ft / 3,014 m 358.12° 2.89° Asphalt 0 ft / 0 m 499 ft / 152 m

Popular Alternatives